Hourly Data Report for May 11, 2021

OTTAWA INTL A
ONTARIO
Current Station Operator: NAVCAN

45°19'00.000" N
75°40'00.000" W
114.90 m
6106001
71628
YOW

Download Data

Hourly Data (May 2021)
Hourly Data Report for May 11, 2021
TIME
LST
Temp Definition
°C
Dew Point Definition
°C
Rel Hum Definition
%
Precip. Amount Definition
mm

Wind Dir Definition
10's deg

Wind Spd Definition
km/h
Visibility Definition
km
Stn Press Definition
kPa
Hmdx Definition


Wind Chill Definition


Weather Definition


00:00 6.2 3.9 85   26 13 16.1 99.93     LegendNANA
01:00 6.1 3.9 86   25 14 24.1 99.95     Cloudy
02:00 5.0 3.4 90   25 11 24.1 99.89     LegendNANA
03:00 3.8 2.6 91   25 10 24.1 99.89     LegendNANA
04:00 2.9 1.8 92   26 8 24.1 99.90     Mainly Clear
05:00 3.0 1.6 91   22 9 24.1 99.91     LegendNANA
06:00 4.3 2.5 88   23 13 24.1 99.97     LegendNANA
07:00 5.7 3.4 85   25 16 24.1 99.98     Mostly Cloudy
08:00 7.0 3.9 81   25 18 24.1 99.97     LegendNANA
09:00 7.0 3.7 80   23 20 24.1 99.99     LegendNANA
10:00 9.4 2.7 63   24 25 24.1 100.00     Mostly Cloudy
11:00 10.5 3.4 61   26 20 24.1 99.99     LegendNANA
12:00 9.3 3.4 66   25 16 24.1 99.98     Rain Showers
13:00 8.2 3.6 72   25 17 24.1 99.98     Mostly Cloudy
14:00 9.8 2.9 62   29 33 24.1 100.00     LegendNANA
15:00 8.3 3.1 69   30 33 24.1 100.03     LegendNANA
16:00 6.9 2.9 76   28 29 24.1 100.07     Rain Showers
17:00 4.8 3.2 90   28 21 16.1 100.12     Rain Showers
18:00 4.9 3.8 93   26 17 24.1 100.14     Rain Showers
19:00 5.3 4.5 95   27 17 24.1 100.15     Rain
20:00 5.8 5.0 95   28 21 16.1 100.20     Rain
21:00 6.0 5.1 94   28 20 24.1 100.25     LegendNANA
22:00 6.1 5.3 95   28 21 24.1 100.24     Cloudy
23:00 6.4 5.5 94   29 19 24.1 100.26     LegendNANA

Notes on Data Quality.

Legend

  • E = Estimated
  • M = Missing
  • NA = Not Available*
  • [empty] = Indicates an unobserved value
Date modified: